Altus AFB, OK

5:38 AM CDT on April 25, 2018 (GMT -0500)
Altus Air Force Base

Weather History for KLTS - May, 2014

Change the Weather History Date:

Friday, May 30, 2014

  Actual Average Record
Temperature  
Mean Temperature 76 °F -  
Max Temperature 87 °F 86 °F 107 °F (2003)
Min Temperature 65 °F 63 °F 59 °F (2007)
Cooling Degree Days 10    
Growing Degree Days 26 (Base 50)    
Moisture  
Dew Point 66 °F    
Average Humidity 70    
Maximum Humidity 100    
Minimum Humidity 47    
Precipitation  
Precipitation 0.00 in - - ()
Sea Level Pressure  
Sea Level Pressure 29.91 in    
Wind  
Wind Speed 7 mph (NE)    
Max Wind Speed 15 mph    
Max Gust Speed 20 mph    
Visibility 10 miles    
Events      
Averages and records for this station are not official NWS values.
T = Trace of Precipitation, MM = Missing Value Source: NWS Daily Summary

Daily Weather History Graph

Daily Weather History Graph

Search for Another Location

Airport or City:

Astronomy

May. 30, 2014 Rise Set
Actual Time 6:25 AM CDT 8:43 PM CDT
Civil Twilight 5:56 AM CDT 9:12 PM CDT
Nautical Twilight 5:21 AM CDT 9:48 PM CDT
Astronomical Twilight 4:42 AM CDT 10:26 PM CDT
Moon 8:09 AM CDT (5/30) 10:24 PM CDT (5/30)
Length of Visible Light 15h 15m
Length of Day
14h 17m
Waxing Crescent, 4% of the Moon is Illuminated
May 30
Waxing Crescent
Jun 5
First Quarter
Jun 12
Full
Jun 19
Last Quarter
Jun 27
New

Hourly Weather History & Observations

Time (CDT) Temp. Heat Index Dew Point Humidity Pressure Visibility Wind Dir Wind Speed Gust Speed Precip Events Conditions
12:58 AM 70.3 °F - 65.7 °F 85% 29.89 in 10.0 mi NNE 5.8 mph - N/A   Clear
1:58 AM 68.9 °F - 66.4 °F 92% 29.88 in 10.0 mi Calm Calm - N/A   Clear
2:58 AM 69.1 °F - 65.3 °F 88% 29.88 in 10.0 mi ENE 5.8 mph - N/A   Clear
3:58 AM 67.8 °F - 66.9 °F 97% 29.88 in 10.0 mi East 3.5 mph - N/A   Clear
4:58 AM 67.1 °F - 66.6 °F 98% 29.88 in 10.0 mi East 5.8 mph - N/A   Clear
5:58 AM 66.4 °F - 66.4 °F 100% 29.89 in 10.0 mi ENE 5.8 mph - N/A   Clear
6:58 AM 65.8 °F - 65.8 °F 100% 29.91 in 10.0 mi NNE 5.8 mph - N/A   Clear
7:58 AM 70.9 °F - 68.7 °F 93% 29.91 in 10.0 mi East 8.1 mph - N/A   Clear
8:58 AM 74.7 °F - 68.2 °F 80% 29.93 in 10.0 mi ESE 3.5 mph - N/A   Clear
9:58 AM 77.9 °F - 67.6 °F 71% 29.94 in 10.0 mi North 3.5 mph - N/A   Clear
10:58 AM 81.5 °F 83.9 °F 67.1 °F 61% 29.93 in 10.0 mi NE 5.8 mph - N/A   Scattered Clouds
11:38 AM 82.4 °F 85.4 °F 68.0 °F 62% 29.97 in 10.0 mi NE 9.2 mph - N/A   Mostly Cloudy
11:58 AM 83.3 °F 85.7 °F 66.6 °F 57% 29.97 in 10.0 mi NE 10.4 mph - N/A   Mostly Cloudy
12:58 PM 83.8 °F 85.8 °F 65.7 °F 54% 29.93 in 10.0 mi NE 15.0 mph 18.4 mph N/A   Scattered Clouds
1:58 PM 85.5 °F 87.1 °F 64.8 °F 50% 29.91 in 10.0 mi NE 12.7 mph 17.3 mph N/A   Clear
2:49 PM 86.0 °F 87.3 °F 64.4 °F 48% 29.95 in 10.0 mi North 12.7 mph 19.6 mph N/A   Scattered Clouds
2:58 PM 86.4 °F 87.6 °F 64.2 °F 47% 29.91 in 10.0 mi North 10.4 mph 19.6 mph N/A   Scattered Clouds
3:58 PM 86.0 °F 87.6 °F 64.9 °F 49% 29.89 in 10.0 mi NE 13.8 mph - N/A   Scattered Clouds
4:07 PM 86.0 °F 87.3 °F 64.4 °F 48% 29.93 in 10.0 mi NNE 11.5 mph - N/A   Scattered Clouds
4:58 PM 86.9 °F 88.6 °F 64.8 °F 48% 29.87 in 10.0 mi NNE 10.4 mph - N/A   Partly Cloudy
5:58 PM 85.6 °F 87.1 °F 64.2 °F 49% 29.86 in 10.0 mi East 10.4 mph - N/A   Clear
6:58 PM 85.1 °F 86.1 °F 63.5 °F 48% 29.85 in 10.0 mi ENE 13.8 mph - N/A   Clear
7:58 PM 82.9 °F 83.8 °F 62.8 °F 50% 29.86 in 10.0 mi ENE 10.4 mph - N/A   Clear
8:58 PM 76.3 °F - 63.9 °F 65% 29.87 in 10.0 mi NE 5.8 mph - N/A   Clear
9:58 PM 76.6 °F - 63.3 °F 63% 29.88 in 10.0 mi NE 8.1 mph - N/A   Clear
10:58 PM 72.3 °F - 65.8 °F 80% 29.91 in 10.0 mi NNE 5.8 mph - N/A   Clear
11:33 PM 71.6 °F - 66.2 °F 83% 29.96 in 10.0 mi NE 5.8 mph - N/A   Mostly Cloudy
11:58 PM 71.8 °F - 66.4 °F 83% 29.93 in 10.0 mi East 6.9 mph - N/A   Overcast